Fort Morgan, CO

6:52 PM MST on January 22, 2017 (GMT -0700)
Fort Morgan

Weather History for KFMM - May, 2014

Change the Weather History Date:

Sunday, May 4, 2014

  Actual Average (KAKO) Record (KAKO)
Temperature  
Mean Temperature 64 °F -  
Max Temperature 83 °F 68 °F 87 °F (1949)
Min Temperature 46 °F 39 °F 26 °F (1955)
Growing Degree Days 14 (Base 50)    
Moisture  
Dew Point 36 °F    
Average Humidity 44    
Maximum Humidity 70    
Minimum Humidity 11    
Precipitation  
Precipitation 0.00 in - - ()
Sea Level Pressure  
Sea Level Pressure 29.84 in    
Wind  
Wind Speed 6 mph (ESE)    
Max Wind Speed 15 mph    
Max Gust Speed 20 mph    
Visibility 10 miles    
Events      
Averages and records for this station are not official NWS values.
T = Trace of Precipitation, MM = Missing Value Source: NWS Daily Summary

Daily Weather History Graph

Daily Weather History Graph

Search for Another Location

Airport or City:

Trip Planner

Search our weather history database for the weather conditions in past years. The results will help you decide how hot, cold, wet, or windy it might be!

Date:

Astronomy

May. 04, 2014 Rise Set
Actual Time 5:50 AM MDT 7:53 PM MDT
Civil Twilight 5:21 AM MDT 8:23 PM MDT
Nautical Twilight 4:44 AM MDT 9:00 PM MDT
Astronomical Twilight 4:05 AM MDT 9:39 PM MDT
Moon 10:17 AM MDT (5/4) 12:00 AM MDT (5/4)
Length of Visible Light 15h 02m
Length of Day
14h 02m
Waxing Crescent, 28% of the Moon is Illuminated
May 4
Waxing Crescent
May 6
First Quarter
May 14
Full
May 21
Last Quarter
May 28
New

Hourly Weather History & Observations

Time (MDT) Temp. Windchill Dew Point Humidity Pressure Visibility Wind Dir Wind Speed Gust Speed Precip Events Conditions
12:15 AM 57.6 °F - 27.0 °F 31% 29.87 in 10.0 mi SW 5.8 mph - N/A   Clear
12:35 AM 58.5 °F - 26.6 °F 30% 29.87 in 10.0 mi West 4.6 mph - N/A   Clear
12:55 AM 55.4 °F - 27.9 °F 35% 29.87 in 10.0 mi WSW 6.9 mph - N/A   Clear
1:15 AM 54.0 °F - 28.8 °F 38% 29.87 in 10.0 mi WSW 6.9 mph - N/A   Clear
1:35 AM 52.9 °F - 29.3 °F 40% 29.86 in 10.0 mi West 6.9 mph - N/A   Clear
1:55 AM 52.3 °F - 29.5 °F 42% 29.85 in 10.0 mi West 6.9 mph - N/A   Clear
2:15 AM 53.8 °F - 29.3 °F 39% 29.85 in 10.0 mi West 4.6 mph - N/A   Clear
2:35 AM 53.6 °F - 29.5 °F 40% 29.85 in 10.0 mi West 6.9 mph - N/A   Clear
2:55 AM 53.1 °F - 30.0 °F 41% 29.85 in 10.0 mi West 8.1 mph - N/A   Clear
3:15 AM 51.8 °F - 30.9 °F 45% 29.85 in 10.0 mi West 8.1 mph - N/A   Clear
3:55 AM 52.0 °F - 31.1 °F 45% 29.85 in 10.0 mi West 4.6 mph - N/A   Clear
4:15 AM 50.2 °F - 31.6 °F 49% 29.85 in 10.0 mi WSW 6.9 mph - N/A   Clear
4:35 AM 47.5 °F - 32.0 °F 55% 29.85 in 10.0 mi WSW 5.8 mph - N/A   Clear
4:55 AM 46.4 °F 44.3 °F 32.7 °F 59% 29.85 in 10.0 mi WSW 4.6 mph - N/A   Clear
5:15 AM 46.4 °F - 32.5 °F 59% 29.85 in 10.0 mi Calm Calm - N/A   Clear
5:35 AM 46.0 °F 41.9 °F 32.4 °F 59% 29.86 in 10.0 mi North 8.1 mph 11.5 mph N/A   Clear
5:55 AM 46.2 °F 43.3 °F 31.8 °F 57% 29.87 in 10.0 mi NE 5.8 mph - N/A   Clear
6:15 AM 47.5 °F - 31.5 °F 54% 29.87 in 10.0 mi NE 3.5 mph - N/A   Clear
6:35 AM 47.7 °F - 31.8 °F 54% 29.88 in 10.0 mi NNE 10.4 mph - N/A   Clear
6:55 AM 49.1 °F - 31.1 °F 50% 29.88 in 10.0 mi NE 5.8 mph - N/A   Clear
7:15 AM 49.3 °F - 32.0 °F 51% 29.89 in 10.0 mi NNE 8.1 mph - N/A   Clear
7:35 AM 48.6 °F - 35.2 °F 60% 29.89 in 10.0 mi NNE 4.6 mph - N/A   Clear
7:55 AM 49.3 °F - 38.1 °F 65% 29.89 in 10.0 mi Calm Calm - N/A   Clear
8:15 AM 50.0 °F - 39.2 °F 66% 29.89 in 10.0 mi NNE 4.6 mph - N/A   Clear
8:35 AM 50.7 °F - 39.9 °F 67% 29.89 in 10.0 mi NE 3.5 mph - N/A   Clear
8:55 AM 51.1 °F - 41.4 °F 69% 29.89 in 10.0 mi NE 5.8 mph - N/A   Clear
9:15 AM 51.4 °F - 41.9 °F 70% 29.89 in 10.0 mi ENE 3.5 mph - N/A   Clear
9:35 AM 52.0 °F - 41.2 °F 67% 29.89 in 10.0 mi ENE 5.8 mph - N/A   Clear
9:55 AM 52.9 °F - 42.3 °F 67% 29.89 in 10.0 mi ENE 5.8 mph - N/A   Clear
10:15 AM 53.6 °F - 42.6 °F 66% 29.89 in 10.0 mi East 5.8 mph - N/A   Clear
10:35 AM 53.6 °F - 43.0 °F 67% 29.89 in 10.0 mi ENE 5.8 mph - N/A   Clear
10:55 AM 54.9 °F - 43.3 °F 65% 29.89 in 10.0 mi ENE 4.6 mph - N/A   Clear
11:15 AM 55.9 °F - 43.3 °F 63% 29.88 in 10.0 mi East 4.6 mph - N/A   Clear
11:35 AM 56.5 °F - 44.1 °F 63% 29.88 in 10.0 mi ESE 4.6 mph - N/A   Clear
11:55 AM 58.5 °F - 43.2 °F 57% 29.87 in 10.0 mi SE 4.6 mph - N/A   Clear
12:15 PM 60.4 °F - 43.7 °F 54% 29.87 in 10.0 mi East 3.5 mph - N/A   Clear
12:35 PM 61.5 °F - 43.5 °F 52% 29.85 in 10.0 mi ESE 3.5 mph - N/A   Clear
12:55 PM 64.9 °F - 42.1 °F 43% 29.85 in 10.0 mi Calm Calm - N/A   Clear
1:15 PM 70.0 °F - 36.5 °F 29% 29.85 in 10.0 mi ESE 5.8 mph - N/A   Clear
1:35 PM 74.5 °F - 35.6 °F 24% 29.84 in 10.0 mi ESE 4.6 mph - N/A   Clear
1:55 PM 75.4 °F - 42.4 °F 31% 29.83 in 7.0 mi ESE 8.1 mph - N/A   Clear
2:15 PM 73.9 °F - 40.6 °F 30% 29.82 in 10.0 mi East 8.1 mph - N/A   Clear
2:35 PM 74.7 °F - 41.5 °F 30% 29.82 in 10.0 mi ESE 8.1 mph - N/A   Clear
2:55 PM 79.0 °F - 38.3 °F 23% 29.81 in 10.0 mi SE 10.4 mph - N/A   Clear
3:15 PM 81.7 °F - 33.1 °F 17% 29.80 in 10.0 mi ESE 8.1 mph 17.3 mph N/A   Clear
3:35 PM 80.8 °F - 33.1 °F 18% 29.79 in 10.0 mi ESE 9.2 mph - N/A   Clear
3:55 PM 82.0 °F - 29.3 °F 15% 29.78 in 10.0 mi SE 10.4 mph 16.1 mph N/A   Clear
4:15 PM 83.5 °F - 23.9 °F 11% 29.78 in 10.0 mi SSE 12.7 mph 18.4 mph N/A   Clear
4:35 PM 82.9 °F - 22.6 °F 11% 29.77 in 10.0 mi ESE 12.7 mph - N/A   Clear
4:55 PM 81.7 °F - 22.1 °F 11% 29.76 in 10.0 mi SE 10.4 mph - N/A   Clear
5:15 PM 81.9 °F - 24.3 °F 12% 29.76 in 10.0 mi SSE 10.4 mph - N/A   Clear
5:35 PM 81.1 °F - 24.1 °F 12% 29.76 in 10.0 mi SSE 15.0 mph 19.6 mph N/A   Clear
5:55 PM 79.7 °F - 25.0 °F 13% 29.76 in 10.0 mi SSE 12.7 mph - N/A   Clear
6:15 PM 80.2 °F - 26.2 °F 14% 29.76 in 10.0 mi SSE 9.2 mph - N/A   Clear
6:35 PM 75.9 °F - 25.3 °F 15% 29.76 in 10.0 mi South 9.2 mph 18.4 mph N/A   Clear
6:55 PM 73.2 °F - 30.7 °F 21% 29.76 in 10.0 mi South 9.2 mph - N/A   Clear
7:15 PM 73.0 °F - 38.8 °F 29% 29.78 in 10.0 mi ESE 8.1 mph 17.3 mph N/A   Clear
7:35 PM 69.4 °F - 41.5 °F 36% 29.78 in 10.0 mi ENE 4.6 mph - N/A   Clear
7:55 PM 65.8 °F - 42.4 °F 43% 29.78 in 10.0 mi ESE 8.1 mph - N/A   Clear
8:15 PM 62.8 °F - 42.8 °F 48% 29.79 in 10.0 mi ESE 5.8 mph - N/A   Clear
8:35 PM 63.5 °F - 42.8 °F 47% 29.80 in 10.0 mi Calm Calm - N/A   Clear
8:55 PM 63.7 °F - 42.4 °F 46% 29.82 in 10.0 mi Calm Calm - N/A   Clear
9:15 PM 62.4 °F - 42.8 °F 49% 29.82 in 10.0 mi Calm Calm - N/A   Clear
9:35 PM 61.7 °F - 42.3 °F 49% 29.83 in 10.0 mi SE 3.5 mph - N/A   Clear
9:55 PM 62.1 °F - 42.6 °F 49% 29.83 in 10.0 mi SE 9.2 mph - N/A   Clear
10:15 PM 62.1 °F - 42.8 °F 49% 29.84 in 10.0 mi South 4.6 mph - N/A   Clear
10:35 PM 60.6 °F - 42.8 °F 52% 29.84 in 10.0 mi SSE 4.6 mph - N/A   Clear
10:55 PM 57.4 °F - 42.8 °F 58% 29.84 in 10.0 mi South 3.5 mph - N/A   Clear
11:15 PM 59.0 °F - 43.2 °F 56% 29.84 in 10.0 mi WNW 5.8 mph - N/A   Clear
11:35 PM 52.0 °F - 42.1 °F 69% 29.85 in 10.0 mi NNW 8.1 mph - N/A   Clear
11:55 PM 52.2 °F - 42.8 °F 70% 29.84 in 10.0 mi NW 3.5 mph - N/A   Clear